Regional Weather Roundup
Issued by NWS

Home | Current Version | Previous Version | Graphics & Text | Print | Product List | Glossary On
Versions: 1 2 3 4 5 6 7 8 9 10 11 12 13 14 15 16 17 18 19 20 21 22 23 24 25 26 27 28 29 30 31 32 33 34 35 36 37 38 39 40 41 42 43 44 45 46 47 48 49 50
000
ASUS43 KDTX 271501
RWRMI
MICHIGAN HOURLY REGIONAL WEATHER ROUNDUP
NATIONAL WEATHER SERVICE DETROIT/PONTIAC MI
1100 AM EDT TUE JUN 27 2017

NOTE: "FAIR" INDICATES FEW OR NO CLOUDS BELOW 12,000 FEET WITH NO
SIGNIFICANT WEATHER AND/OR OBSTRUCTION TO VISIBILITY.

MIZ047>049-052>055-059>063-066>070-074>076-081>083-271600-
SOUTHEAST LOWER MICHIGAN

CITY           SKY/WX    TMP DP  RH WIND       PRES   REMARKS
ADRIAN         SUNNY     65  43  44 NW10G20   30.12S
ALMA           SUNNY     65  49  55 W14       30.08F
ANN ARBOR      MOSUNNY   65  47  52 W10       30.09S
BAD AXE        SUNNY     62  49  62 NW13      30.04S
CARO           SUNNY     65  51  60 W13G20    30.05S
DETROIT CITY   SUNNY     64  45  49 W13       30.07R
DETROIT        MOSUNNY   66  46  48 W15G22    30.08S
FLINT          MOSUNNY   65  47  52 NW15G22   30.07S
GROSSE ILE     SUNNY     65  47  50 NW15      30.07S
HILLSDALE      SUNNY     63  43  48 NW12G18   30.12S
HOWELL         MOSUNNY   64  44  47 W12G20    30.09S

CITY           SKY/WX    TMP DP  RH WIND       PRES   REMARKS
JACKSON        MOSUNNY   64  46  52 N9G16     30.11S
LAMBERTVILLE   SUNNY     65  43  45 W10       30.10S
LANSING        SUNNY     67  47  48 W13G21    30.10S
LAPEER         PTSUNNY   64  47  54 NW9G20    30.06S
MASON          MOSUNNY   65  47  51 NW12G18   30.10S
MONROE         SUNNY     65  45  48 NW13G18   30.09S
MT. CLEMENS    MOSUNNY   65  48  54 W12       30.04R
PONTIAC        MOSUNNY   63  47  55 NW15      30.07R
PORT HOPE        N/A     62  51  67 NW9       30.01R
PORT HURON     MOSUNNY   63  48  59 NW8G20    30.04S
TRI CITIES     MOSUNNY   66  51  58 W18       30.06F
MIDLAND        FAIR      66  48  51 W10       30.05S
TROY           SUNNY     65  42  43 W16G23    30.08S
SAGINAW HB     SUNNY     64  45  48 W13       30.05F
$$
MIZ043>046-050>051-056>058-064>065-071>073-077>080-271600-
SOUTHWEST LOWER MICHIGAN

CITY           SKY/WX    TMP DP  RH WIND       PRES   REMARKS
BATTLE CREEK   MOSUNNY   66  48  52 W9G17     30.12F
BENTON HARBOR  SUNNY     67  47  48 W14       30.13S
BIG RAPIDS     MOSUNNY   64  48  54 NW8G18    30.06F
COLDWATER      SUNNY     66  44  45 NW3       30.13S
FREMONT        FAIR      65  50  58 W7        30.07F
HOLLAND        SUNNY     66  51  58 W12       30.11F
GRAND RAPIDS   PTSUNNY   66  49  54 W15G24    30.09F
IONIA          FAIR      66  48  52 W12       30.08F
KALAMAZOO      MOSUNNY   67  44  43 W14       30.13S
LUDINGTON      SUNNY     62  54  75 W9        30.07S
MARSHALL       SUNNY     66  45  46 W6G16     30.11S
MOUNT PLEASANT SUNNY     64  48  54 SW9       30.05F
MUSKEGON       MOSUNNY   66  52  60 W10       30.09F
SOUTH HAVEN    SUNNY     66  51  58 W13       30.12S
$$
MIZ016>042-271600-
NORTHERN LOWER MICHIGAN

CITY           SKY/WX    TMP DP  RH WIND       PRES   REMARKS
ALPENA         SUNNY     65  51  60 W9G16     30.00S
BEAVER ISLAND  SUNNY     61  50  67 W6        30.02S
BELLAIRE       MOSUNNY   64  50  61 W7        30.03R
CADILLAC       SUNNY     64  52  64 W13       30.05S
CHARLEVOIX     MOSUNNY   62  52  70 NW5       30.06R
FRANKFORT      SUNNY     61  53  74 W8        30.05S
GAYLORD        SUNNY     61  47  59 W9        30.02S
GRAYLING       MOSUNNY   63  50  63 NW9       30.04S
HARBOR SPRINGS SUNNY     61  53  74 SW8       30.02R
HOUGHTON LAKE  SUNNY     63  48  58 W10       30.04F
MANISTEE       SUNNY     62  55  77 W9        30.06S
OSCODA         SUNNY     68  46  45 NW17G23   30.00S
PELLSTON       MOSUNNY   63  47  55 W8        30.02R
ROGERS CITY    MOSUNNY   63  50  63 W10       30.01S
TRAVERSE CITY  PTSUNNY   65  53  65 S6        30.02S
$$
MIZ007>008-015-271600-
EASTERN UPPER MICHIGAN

CITY           SKY/WX    TMP DP  RH WIND       PRES   REMARKS
KINROSS        SUNNY     60  50  69 NW9       29.99F
MACKINAC ISLAN SUNNY     59  51  75 W9        30.00S
NEWBERRY       SUNNY     62  52  70 W6        29.99F
S. S. MARIE    SUNNY     60  49  66 W7        29.98S
MUNISING         N/A     61  49  64 N6        30.00S
$$
MIZ004>006-011>014-085-271600-
CENTRAL UPPER MICHIGAN

CITY           SKY/WX    TMP DP  RH WIND       PRES   REMARKS
MANISTIQUE     SUNNY     62  46  54 S3        30.01S
ESCANABA       MOSUNNY   65  51  60 VRB3      30.02S
MENOMINEE      SUNNY     63  53  70 VRB3      30.04F
SAWYER-GWINN   SUNNY     63  48  59 NW10      30.01F
$$
MIZ001>003-009>011-084-271600-
WESTERN UPPER MICHIGAN

CITY           SKY/WX    TMP DP  RH WIND       PRES   REMARKS
IRON MOUNTAIN  SUNNY     65  48  54 NW3       30.02S
HOUGHTON       MOSUNNY   63  50  62 W13       30.00S
COPPER HARBOR    N/A     58  53  84 N13       29.98S
IRONWOOD       SUNNY     66  46  48 W8        30.04F
$$

ABBREVIATIONS USED IN REMARKS
   TC - TEMPERATURE IN CELSIUS
  WCI - WIND CHILL INDEX
   HX - HEAT INDEX
  VSB - VISIBILITY





USA.gov is the U.S. government's official web portal to all federal, state and local government web resources and services.